User: anonymous   Login
Location: Caltech
(34.1382°N, 118.1253°W)
Time: 17:38:40
(UTC-07:00)
Language:

Gbstr 26 Del rocket - Orbit

View from above orbital plane
View from above orbital plane
View from above satellite
View from above satellite

Ground track
Ground track

The orbit data is extracted from the following two-line orbital elements,

1 25876U 99041E   18111.53655419  .00000069  00000-0  51775-4 0  9995
2 25876  51.7655 180.1869 0531045 206.7561 150.5046 14.04207677957939
Epoch (UTC): 21 April 2018 12:52:38
Eccentricity: 0.0531045
inclination: 51.7655°
perigee height: 494 km
apogee height: 1264 km
right ascension of ascending node: 180.1869°
argument of perigee: 206.7561°
revolutions per day: 14.04207677
mean anomaly at epoch: 150.5046°
orbit number at epoch: 95793

The dashed part of the orbit path shows where the satellite is in the earth's shadow,  

DLR